Location: Unspecified
(51.6244°N, 7.4094°E)
Time: 11:48:20
(UTC+02:00)

ISS - Visible Passes

Search period start: 28 May 2018 00:00
Search period end: 07 June 2018 00:00
Orbit: 402 x 407 km, 51.6° (Epoch: 28 May)

Date Brightness Start Highest point End Pass type
(mag) Time Alt. Az. Time Alt. Az. Time Alt. Az.
28 May -3.3 01:05:32 10° W 01:08:21 41° SW 01:08:21 41° SW visible
28 May -3.8 22:36:47 10° W 22:40:03 87° NNW 22:43:21 10° E visible
29 May -3.8 00:13:16 10° W 00:16:31 58° SSW 00:17:42 33° SE visible
29 May -1.2 01:50:19 10° W 01:50:20 10° W 01:50:20 10° W visible
29 May -3.9 23:21:02 10° W 23:24:19 75° SSW 23:27:06 14° ESE visible
30 May -2.3 00:57:44 10° W 00:59:43 23° SW 00:59:43 23° SW visible
30 May -3.8 22:28:48 10° W 22:32:05 88° S 22:35:22 10° E visible
31 May -3.2 00:05:21 10° W 00:08:24 37° SSW 00:09:08 32° S visible
31 May -3.6 23:13:02 10° W 23:16:14 52° SSW 23:18:35 17° SE visible
01 Jun -1.5 00:50:18 10° WSW 00:51:12 13° WSW 00:51:12 13° WSW visible
01 Jun -3.8 22:20:45 10° W 22:24:01 70° SSW 22:27:17 10° ESE visible
01 Jun -2.4 23:57:32 10° W 00:00:09 22° SW 00:00:40 21° SSW visible
02 Jun -2.8 23:05:03 10° W 23:08:02 32° SSW 23:10:09 16° SSE visible
03 Jun -1.6 23:50:17 10° WSW 23:51:44 12° SW 23:52:18 12° SSW visible
04 Jun -2.0 22:57:15 10° W 22:59:40 19° SW 23:01:50 11° S visible
06 Jun -1.2 22:50:28 10° SW 22:51:09 10° SW 22:51:49 10° SSW visible
